User: anonymous   Login
Location: Unspecified
(40.7945°N, 111.1337°W)
Time: 20:57:46
(UTC-06:00)
Language:

Explorer 11/Cluster Stage 4 - Orbit

View from above orbital plane
View from above orbital plane
View from above satellite
View from above satellite

Ground track
Ground track

The orbit data is extracted from the following two-line orbital elements,

1   107U 61013A   19167.15970913  .00000373  00000-0  30387-4 0  9996
2   107  28.7896  95.5338 0547214 339.6478  18.3047 14.08785365913931
Epoch (UTC): 16 June 2019 03:49:58
Eccentricity: 0.0547214
inclination: 28.7896°
perigee height: 467 km
apogee height: 1260 km
right ascension of ascending node: 95.5338°
argument of perigee: 339.6478°
revolutions per day: 14.08785365
mean anomaly at epoch: 18.3047°
orbit number at epoch: 91393

The dashed part of the orbit path shows where the satellite is in the earth's shadow,  

DLR